Location: Albany
(35.0170°S, 117.8920°E)
Time: 00:50:42
(UTC+08:00)

Explorer 7 - Pass Details

Date: 26 January 2021
Orbit: 484 x 677 km, 50.3° (Epoch: 01 March)

Event Time Altitude Azimuth Distance (km) Brightness Sun altitude
Rises 13:14:53 0° 6° (N) 3,006 10.8 69.7°
Reaches altitude 10° 13:19:18 10° 43° (NE) 2,115 10.0 69.1°
Maximum altitude 13:20:21 11° 56° (NE) 2,074 9.9 69.0°
Drops below altitude 10° 13:21:25 10° 69° (ENE) 2,119 9.9 68.9°
Sets 13:25:51 0° 106° (ESE) 3,030 10.4 68.2°
